Flag for United Kingdom Weather past 2 weeks in Bolton, England, United Kingdom

Now
68 °F

Passing clouds.


Feels Like: 68 °F
Forecast: 53 / 65 °F
Wind: 2 mph from North

Location: Manchester Airport

Current Time: Jul 28, 2014 at 11:46:50 AM

Latest Report: Jul 28, 2014 at 11:20 AM


Visibility: N/A

Pressure: 30.04 "Hg

Humidity: 56%

Dew point: 52 °F

Location of BoltonLocation

Historic Weather in Bolton — Graph

°F

Bolton temperature yesterday

Maximum temperature yesterday: 70 °F (at 1:50 PM)
Minimum temperature yesterday: 55 °F (at 4:20 AM)
Average temperature yesterday: 63 °F

Past Weeks' High & Low Weather Summary

 TemperatureHumidityPressure
High81 °F (Jul 24, 3:20 PM)100% (Jul 15, 3:20 AM)30.27 "Hg (Jul 15, 3:20 AM)
Low46 °F (Jul 14, 4:20 AM)39% (Jul 24, 3:20 PM)29.71 "Hg (Jul 19, 5:50 PM)
Average66 °F73%30.03 "Hg
* Reported Jul 13 10:20 AM — Jul 28 10:20 AM, Bolton, Weather by CustomWeather, © 2014

Note: Actual official high and low records may vary slightly from our data, if they occured in-between our weather recording intervals... More about our weather records

Advertising

Bolton weather history for previous 24 hours

 ConditionsComfort  
Time TempWeatherWind HumidityBarometerVisibility
10:20 AM
Jul 28
66 °FPassing clouds.2 mph64%30.04 "HgN/A
9:50 AM66 °FPassing clouds.2 mph64%30.04 "HgN/A
9:20 AM63 °FScattered clouds.6 mph77%30.04 "HgN/A
8:50 AM61 °FPartly sunny.2 mph83%30.04 "HgN/A
8:20 AM61 °FPartly sunny.No wind83%30.04 "HgN/A
7:50 AM59 °FScattered clouds.2 mph88%30.04 "HgN/A
7:20 AM59 °FPassing clouds.2 mph88%30.01 "HgN/A
6:50 AM57 °FScattered clouds.3 mph94%30.01 "HgN/A
6:20 AM55 °FPartly sunny.2 mph94%30.01 "HgN/A
5:50 AM54 °FPassing clouds.3 mph94%30.01 "HgN/A
5:20 AM52 °FClear.6 mph94%30.01 "Hg10 mi
4:50 AM54 °FPassing clouds.No wind100%30.01 "HgN/A
4:20 AM54 °FCool.2 mph94%30.01 "HgN/A
3:20 AM55 °FPassing clouds.No wind94%30.01 "HgN/A
2:50 AM57 °FPassing clouds.5 mph88%30.01 "HgN/A
2:20 AM57 °FClear.3 mph88%30.01 "Hg10 mi
1:50 AM57 °FClear.2 mph94%30.01 "Hg10 mi
1:20 AM57 °FPassing clouds.2 mph94%30.01 "HgN/A
12:50 AM57 °FRain. Partly cloudy.2 mph94%30.04 "Hg4 mi
12:20 AM57 °FClear.3 mph88%30.04 "Hg10 mi
11:50 PM
Jul 27
57 °FPassing clouds.5 mph94%30.04 "HgN/A
11:20 PM57 °FLight rain. Passing clouds.5 mph94%30.04 "HgN/A
10:50 PM57 °FLight rain. Partly cloudy.5 mph94%30.04 "HgN/A
10:20 PM59 °FLight rain. Passing clouds.3 mph88%30.04 "HgN/A
9:50 PM59 °FPassing clouds.5 mph82%30.04 "HgN/A
9:20 PM59 °FPassing clouds.6 mph82%30.04 "HgN/A
8:50 PM63 °FPassing clouds.8 mph68%30.04 "HgN/A
8:20 PM63 °FPassing clouds.13 mph68%30.01 "HgN/A
7:50 PM64 °FPassing clouds.12 mph60%30.01 "HgN/A
7:20 PM64 °FPassing clouds.13 mph60%30.01 "HgN/A
6:50 PM66 °FMild.12 mph56%30.01 "HgN/A
6:20 PM68 °FPassing clouds.14 mph56%30.01 "HgN/A
5:50 PM68 °FPassing clouds.13 mph56%30.01 "HgN/A
5:20 PM68 °FPassing clouds.13 mph53%30.01 "HgN/A
4:50 PM68 °FPassing clouds.13 mph53%30.01 "HgN/A
4:20 PM70 °FPassing clouds.12 mph50%30.01 "HgN/A
3:50 PM70 °FPassing clouds.15 mph50%30.04 "HgN/A
3:20 PM70 °FPassing clouds.14 mph53%30.04 "HgN/A
2:50 PM68 °FPassing clouds.14 mph56%30.04 "HgN/A
2:20 PM68 °FPassing clouds.14 mph56%30.04 "HgN/A
1:50 PM70 °FPassing clouds.14 mph57%30.04 "HgN/A
1:20 PM68 °FPassing clouds.15 mph56%30.04 "HgN/A
12:50 PM68 °FPassing clouds.14 mph60%30.04 "HgN/A
12:20 PM68 °FPassing clouds.17 mph60%30.04 "HgN/A
11:50 AM66 °FPassing clouds.16 mph64%30.07 "HgN/A
11:20 AM66 °FScattered clouds.17 mph64%30.07 "HgN/A
Weather by CustomWeather, © 2014

See weather overviewHow to use our weather pages